Location: Brabourne
(51.1333°N, 1.0000°E)
Time: 10:45:12
(UTC+00:00)

ADEOS Rocket - Pass Details

Date: 01 November 2021
Orbit: 858 x 1307 km, 98.8° (Epoch: 26 November)

Event Time Altitude Azimuth Distance (km) Brightness Sun altitude
Exits shadow 23:42:15 11° 0° (N) 2,903 5.9 -53.6°
Drops below altitude 10° 23:42:23 10° 360° (N) 2,943 5.9 -53.6°
Sets 23:45:09 0° 350° (N) 3,850 6.7 -53.6°
